User: anonymous   Login
Location: Bishopstone
(51.0167°N, 1.9000°W)
Time: 23:50:56
(UTC+00:00)
Language:

Cosmos 1821 Rocket - Orbit

View from above orbital plane
View from above orbital plane
View from above satellite
View from above satellite

Ground track
Ground track

The orbit data is extracted from the following two-line orbital elements,

1 17526U 87017B   19318.88689759 -.00000058 +00000-0 -74406-4 0  9996
2 17526 082.8999 102.0589 0040599 016.7077 343.5407 13.76870712627281
Epoch (UTC): 14 November 2019 21:17:07
Eccentricity: 0.0040599
inclination: 82.8999°
perigee height: 945 km
apogee height: 1005 km
right ascension of ascending node: 102.0589°
argument of perigee: 16.7077°
revolutions per day: 13.76870712
mean anomaly at epoch: 343.5407°
orbit number at epoch: 62728

The dashed part of the orbit path shows where the satellite is in the earth's shadow,  

DLR